Stations météo

réclame
Mon MeteoGroup
Estepona, Espagne (8463): Température de l'air & dewpoint: 14.09.2020 19:00:00 - 20.09.2020 19:00:00 (CEST)Estepona, Espagne (8463): Vitesse du vent & gusts: 14.09.2020 19:00:00 - 20.09.2020 19:00:00 (CEST)Estepona, Espagne (8463): Direction du vent: 14.09.2020 19:00:00 - 20.09.2020 19:00:00 (CEST)Estepona, Espagne (8463): reduced air pressure: 14.09.2020 19:00:00 - 20.09.2020 19:00:00 (CEST)Estepona, Espagne (8463): visibility: 14.09.2020 19:00:00 - 20.09.2020 19:00:00 (CEST)Estepona, Espagne (8463): Ensoleillement: 14.09.2020 19:00:00 - 20.09.2020 19:00:00 (CEST)Estepona, Espagne (8463): Quantités de précipitations: 14.09.2020 19:00:00 - 20.09.2020 19:00:00 (CEST)
Date & Time tt [°C] td [°C] ff [km/h] ff [knt] fx [km/h] fx [knt] dd ppp [hPa] vv [km] sd [min] rr [mm]
20.09.2020 19:00:00 25,0 16,1 8 5 18 10 E 1017,4 20 60 0,0
20.09.2020 18:00:00 25,5 16,0 6 3 18 10 ENE 1017,4 20 60 0,0
20.09.2020 17:00:00 - - - - - - - - - - -
20.09.2020 16:00:00 - - - - - - - - - - -
20.09.2020 15:00:00 26,4 16,6 4 2 11 6 SE 1018,8 20 60 0,0
20.09.2020 14:00:00 26,1 16,4 5 3 11 6 E 1019,5 20 60 -
20.09.2020 13:00:00 - - - - - - - - - - -
20.09.2020 12:00:00 - - - - - - - - - - -
20.09.2020 11:00:00 - - - - - - - - - - -
20.09.2020 10:00:00 - - - - - - - - - - -
20.09.2020 09:00:00 18,1 11,7 2 1 4 2 SW 1019,8 20 30 0,0
20.09.2020 08:00:00 17,3 10,9 0 0 3 2 N 1019,5 20 0 -
20.09.2020 07:00:00 17,9 11,2 2 1 7 4 WNW 1019,6 20 0 0,0
20.09.2020 06:00:00 18,0 11,3 1 1 6 4 SSW 1019,4 20 0 0,0
20.09.2020 05:00:00 - - - - - - - - - - -
20.09.2020 04:00:00 - - - - - - - - - - -
20.09.2020 03:00:00 18,7 12,8 4 2 8 5 ENE 1020,1 20 0 0,0
20.09.2020 02:00:00 19,4 13,4 2 1 10 6 W 1019,9 20 0 -
20.09.2020 01:00:00 19,8 12,5 5 3 11 6 W 1019,9 20 0 0,0
20.09.2020 00:00:00 - - - - - - - - - - -
19.09.2020 23:00:00 - - - - - - - - - - -
19.09.2020 22:00:00 23,0 14,3 12 6 26 14 WSW 1019,7 20 0 0,2
19.09.2020 21:00:00 24,1 14,8 11 6 34 19 W 1019,1 20 0 0,0
19.09.2020 20:00:00 25,5 14,6 11 6 28 15 W 1018,8 20 29 -
19.09.2020 19:00:00 26,8 14,2 14 8 36 19 W 1018,4 20 41 0,0
19.09.2020 18:00:00 27,2 14,9 14 8 32 17 W 1018,3 20 45 0,0
19.09.2020 17:00:00 28,5 14,7 14 8 54 29 WSW 1018,5 20 54 0,0
19.09.2020 16:00:00 - - - - - - - - - - -
19.09.2020 15:00:00 27,9 15,9 10 5 26 14 SSW 1018,9 20 39 0,0
19.09.2020 14:00:00 26,4 16,6 12 6 27 15 SSW 1019,8 20 47 -
19.09.2020 13:00:00 - - - - - - - - - - -
19.09.2020 12:00:00 24,9 16,3 11 6 23 12 SSW 1020,4 20 45 0,2
19.09.2020 11:00:00 24,6 16,0 13 7 26 14 SW 1020,1 20 60 0,0
19.09.2020 10:00:00 - - - - - - - - - - -
19.09.2020 09:00:00 20,8 14,9 1 1 12 6 SE 1019,5 20 27 0,0
19.09.2020 08:00:00 20,4 14,7 8 4 22 12 W 1018,9 20 0 -
19.09.2020 07:00:00 20,4 15,6 9 5 16 9 SW 1018,7 19 0 0,0
19.09.2020 06:00:00 20,8 15,8 8 4 14 8 WSW 1018,5 20 0 0,2
19.09.2020 05:00:00 - - - - - - - - - - -
19.09.2020 04:00:00 - - - - - - - - - - -
19.09.2020 03:00:00 21,7 15,1 9 5 26 14 W 1018,6 20 0 0,0
19.09.2020 02:00:00 21,5 15,1 11 6 23 13 W 1018,6 20 0 -
19.09.2020 01:00:00 21,6 15,2 9 5 19 10 W 1019,0 20 0 0,0
19.09.2020 00:00:00 22,3 15,4 9 5 16 9 W 1019,1 20 0 0,2
18.09.2020 23:00:00 - - - - - - - - - - -
18.09.2020 22:00:00 - - - - - - - - - - -
18.09.2020 21:00:00 23,7 15,2 17 9 40 22 WSW 1017,2 20 0 0,0
18.09.2020 20:00:00 24,8 14,5 20 11 41 22 WSW 1016,4 20 28 -
18.09.2020 19:00:00 - - - - - - - - - - -
18.09.2020 18:00:00 28,1 12,8 20 11 33 18 WSW 1015,5 20 58 0,0
18.09.2020 17:00:00 27,9 16,8 8 4 23 12 SSW 1015,9 15 60 0,0
18.09.2020 16:00:00 - - - - - - - - - - -
18.09.2020 15:00:00 27,0 18,3 10 5 26 14 SSE 1016,0 15 26 0,2
18.09.2020 14:00:00 25,0 18,7 9 5 19 10 SSE 1016,1 9 16 -
18.09.2020 13:00:00 - - - - - - - - - - -
18.09.2020 12:00:00 25,1 19,5 16 9 29 16 ENE 1015,7 20 59 0,0
18.09.2020 11:00:00 22,4 19,2 14 7 26 14 ENE 1015,4 20 30 1,0
18.09.2020 10:00:00 21,1 17,9 13 7 28 15 NE 1014,4 20 0 0,8
18.09.2020 09:00:00 21,1 17,9 5 3 21 12 NE 1015,0 20 0 0,2
18.09.2020 08:00:00 21,0 17,8 16 9 24 13 E 1014,3 20 0 -
18.09.2020 07:00:00 21,2 17,8 12 6 20 11 E 1014,0 16 0 0,2
18.09.2020 06:00:00 21,5 17,9 3 2 23 12 SSW 1014,4 13 0 0,2
18.09.2020 05:00:00 21,9 17,5 8 4 21 11 SW 1014,7 17 0 0,0
18.09.2020 04:00:00 - - - - - - - - - - -
18.09.2020 03:00:00 22,7 16,7 9 5 22 12 SSW 1015,9 16 0 0,0
18.09.2020 02:00:00 23,0 16,0 15 8 45 24 SSW 1016,4 20 0 -
18.09.2020 01:00:00 - - - - - - - - - - -
18.09.2020 00:00:00 22,8 17,1 4 2 12 6 NE 1016,6 18 0 0,0
17.09.2020 23:00:00 23,4 17,6 4 2 12 7 E 1016,7 9 0 0,0
17.09.2020 22:00:00 - - - - - - - - - - -
17.09.2020 21:00:00 23,8 18,7 6 4 18 10 E 1015,4 8 0 0,0
17.09.2020 20:00:00 24,4 19,3 12 6 20 11 ENE 1015,1 11 0 -
17.09.2020 19:00:00 - - - - - - - - - - -
17.09.2020 18:00:00 - - - - - - - - - - -
17.09.2020 17:00:00 - - - - - - - - - - -
17.09.2020 16:00:00 - - - - - - - - - - -
17.09.2020 15:00:00 25,2 19,8 19 11 34 19 E 1014,9 15 1 0,0
17.09.2020 14:00:00 25,4 19,6 19 11 33 18 E 1015,1 18 15 -
17.09.2020 13:00:00 25,9 19,8 20 11 38 20 ENE 1015,4 17 4 0,0
17.09.2020 12:00:00 25,4 20,0 17 9 32 17 ENE 1016,2 16 2 0,0
17.09.2020 11:00:00 25,4 19,8 18 10 29 15 ENE 1016,2 13 9 0,0
17.09.2020 10:00:00 24,5 19,8 11 6 25 13 ENE 1016,2 14 0 0,0
17.09.2020 09:00:00 24,0 19,5 11 6 24 13 ENE 1016,1 13 0 0,0
17.09.2020 08:00:00 23,9 19,0 11 6 22 12 ENE 1015,5 16 0 -
17.09.2020 07:00:00 23,7 19,0 7 4 18 10 ENE 1015,3 17 0 0,0
17.09.2020 06:00:00 23,6 18,7 7 4 13 7 NE 1015,8 17 0 0,0
17.09.2020 05:00:00 23,4 18,5 6 4 18 10 ENE 1015,9 19 0 0,0
17.09.2020 04:00:00 23,4 18,9 7 4 16 9 ENE 1016,4 19 0 0,0
17.09.2020 03:00:00 23,5 19,4 8 4 19 11 ENE 1016,9 15 0 0,0
17.09.2020 02:00:00 23,7 19,2 10 5 19 11 ENE 1017,7 15 0 -
17.09.2020 01:00:00 23,6 18,7 11 6 19 10 ENE 1017,7 18 0 0,0
17.09.2020 00:00:00 23,3 18,6 8 4 20 11 ENE 1017,9 18 0 0,0
16.09.2020 23:00:00 23,3 19,3 13 7 27 15 E 1017,8 14 0 0,0
16.09.2020 22:00:00 23,3 19,1 9 5 18 10 E 1018,1 17 0 0,0
16.09.2020 21:00:00 23,2 18,9 9 5 15 8 E 1017,5 17 0 0,0
16.09.2020 20:00:00 23,7 19,0 7 4 13 7 E 1017,7 16 0 -
16.09.2020 19:00:00 24,6 19,0 8 5 13 7 E 1017,5 18 20 0,0
16.09.2020 18:00:00 25,6 18,8 8 4 15 8 E 1017,3 20 49 0,0
16.09.2020 17:00:00 26,1 19,3 7 4 14 8 E 1017,4 18 43 0,0
16.09.2020 16:00:00 25,6 19,0 9 5 18 10 E 1017,7 20 42 0,0
16.09.2020 15:00:00 26,1 19,5 12 7 27 15 E 1018,3 20 56 0,0
16.09.2020 14:00:00 26,3 19,4 13 7 21 11 E 1019,1 20 54 -
16.09.2020 13:00:00 26,1 19,3 11 6 21 11 E 1019,9 16 45 0,0
16.09.2020 12:00:00 27,0 18,5 9 5 19 10 E 1020,2 20 60 0,0
16.09.2020 11:00:00 25,4 17,6 11 6 17 9 E 1020,1 18 60 0,0
16.09.2020 10:00:00 - - - - - - - - - - -
16.09.2020 09:00:00 - - - - - - - - - - -
16.09.2020 08:00:00 22,0 15,8 6 4 15 8 NE 1019,5 20 0 -
16.09.2020 07:00:00 21,2 16,0 7 4 12 7 NE 1019,6 20 0 0,0
16.09.2020 06:00:00 21,5 17,1 3 1 11 6 E 1020,0 20 0 0,0
16.09.2020 05:00:00 21,3 17,1 4 2 9 5 NE 1020,3 18 0 0,0
16.09.2020 04:00:00 21,6 17,6 5 3 12 6 NE 1020,7 20 0 0,0
16.09.2020 03:00:00 21,9 18,1 5 3 11 6 NE 1021,0 18 0 0,0
16.09.2020 02:00:00 22,4 18,8 5 3 10 5 NE 1021,3 15 0 -
16.09.2020 01:00:00 - - - - - - - - - - -
16.09.2020 00:00:00 22,9 19,1 3 2 5 3 E 1021,5 11 0 0,0
15.09.2020 23:00:00 22,8 18,8 2 1 8 4 S 1021,2 13 0 0,0
15.09.2020 22:00:00 - - - - - - - - - - -
15.09.2020 21:00:00 23,8 19,1 5 3 10 5 E 1020,5 13 0 0,0
15.09.2020 20:00:00 24,8 18,7 3 2 14 8 NE 1020,6 18 35 -
15.09.2020 19:00:00 - - - - - - - - - - -
15.09.2020 18:00:00 27,0 19,1 8 5 16 9 E 1020,3 19 60 0,0
15.09.2020 17:00:00 27,3 18,8 11 6 17 9 E 1020,7 19 60 0,0
15.09.2020 16:00:00 28,4 18,8 8 4 14 7 E 1021,4 20 60 0,0
15.09.2020 15:00:00 27,7 19,0 10 5 19 11 E 1022,0 14 60 0,0
15.09.2020 14:00:00 - - - - - - - - - - -
15.09.2020 13:00:00 26,6 18,7 10 5 29 16 ENE 1023,0 20 8 0,0
15.09.2020 12:00:00 24,9 18,3 9 5 16 8 E 1023,3 18 0 0,0
15.09.2020 11:00:00 24,7 17,9 8 5 18 10 ENE 1023,1 12 0 0,0
15.09.2020 10:00:00 24,7 15,9 11 6 18 10 ENE 1022,4 12 0 0,0
15.09.2020 09:00:00 24,1 15,1 8 4 20 11 NE 1021,8 20 0 0,0
15.09.2020 08:00:00 23,0 15,1 9 5 18 10 NE 1021,3 20 0 -
15.09.2020 07:00:00 23,2 15,0 9 5 18 10 NE 1021,0 20 0 0,0
15.09.2020 06:00:00 - - - - - - - - - - -
15.09.2020 05:00:00 - - - - - - - - - - -
15.09.2020 04:00:00 - - - - - - - - - - -
15.09.2020 03:00:00 23,6 16,9 8 4 17 9 NE 1022,3 17 0 0,0
15.09.2020 02:00:00 23,5 17,5 8 4 18 10 NE 1022,5 20 0 -
15.09.2020 01:00:00 23,6 17,8 5 3 13 7 NE 1022,8 20 0 0,0
15.09.2020 00:00:00 23,5 18,6 9 5 23 13 ENE 1022,4 9 0 0,0
14.09.2020 23:00:00 23,6 19,1 13 7 26 14 ENE 1022,6 10 0 0,0
14.09.2020 22:00:00 - - - - - - - - - - -
14.09.2020 21:00:00 24,0 18,4 9 5 22 12 ENE 1021,4 16 0 0,0
14.09.2020 20:00:00 24,4 18,5 13 7 27 15 ENE 1021,1 11 0 -
14.09.2020 19:00:00 25,3 18,2 18 10 29 16 ENE 1020,6 13 30 0,0

tt = Température de l'air
td = dewpoint
ff = Vitesse du vent
fx = gusts
dd = Direction du vent
ppp = reduced air pressure
vv = visibility
sd = Ensoleillement
rr = Quantités de précipitations

stations d'obs. à proximité